Tracking 32420 objects as of 8-Dec-2025
HD Live streaming from Space Station
objects crossing your sky now

CZ-6A DEB

Track CZ-6A DEB now!
10-day predictions


NORAD ID: 58430
Int'l Code: 2022-151AHY
Perigee: 793.7 km
Apogee: 920.6 km
Inclination: 98.9 °
Period: 101.9 minutes
Semi major axis: 7228 km
RCS: Unknown
Launch date: November 11, 2022
Source: People's Republic of China (PRC)
Launch site: Taiyaun Space Center, China (TSC)

Note: This is SATELLITE DEBRIS
Your satellite tracking list
Your tracking list is empty




NASA's NSSDC Master Catalog

Two Line Element Set (TLE):
1 58430U 22151AHY 25339.48312829  .00009283  00000-0  48410-2 0  9991
2 58430  98.8944 333.7845 0087735 199.2459 160.5392 14.12736239 51534
Source of the keplerian elements: AFSPC